This is the latest recevied weather packets stored in our database for station/object WB5LFS-1. If no packets are shown the sender has not sent any weather packets the latest 10 day(s).
| Time | Temp. | Humidity | Pressure | Rain* | Wind** | Luminosity | Snow |
|---|---|---|---|---|---|---|---|
| 1778119006 | 19.44° C | 83% | 1010.2 hPa | 0 mm | - | - | - |
| 1778118106 | 19.44° C | 83% | 1010.2 hPa | 0 mm | - | - | - |
| 1778117206 | 20° C | 82% | 1010.4 hPa | 0 mm | - | - | - |
| 1778116306 | 20.56° C | 80% | 1010.3 hPa | 0 mm | - | - | - |
| 1778115406 | 20.56° C | 79% | 1010.1 hPa | 0 mm | - | - | - |
| 1778114506 | 21.11° C | 78% | 1010.2 hPa | 0 mm | - | - | - |
| 1778113606 | 21.11° C | 78% | 1010.1 hPa | 0 mm | - | - | - |
| 1778112706 | 21.11° C | 77% | 1010 hPa | 0 mm | - | - | - |
| 1778111806 | 21.67° C | 76% | 1010 hPa | 0 mm | - | - | - |
| 1778110906 | 22.22° C | 74% | 1009.9 hPa | 0 mm | - | - | - |
| 1778110006 | 22.22° C | 73% | 1009.8 hPa | 0 mm | - | - | - |
| 1778109106 | 22.22° C | 73% | 1009.8 hPa | 0 mm | - | - | - |
| 1778108206 | 22.22° C | 74% | 1009.6 hPa | 0 mm | - | - | - |
| 1778107306 | 22.78° C | 72% | 1009.5 hPa | 0 mm | - | - | - |
| 1778106406 | 22.78° C | 72% | 1009.6 hPa | 0 mm | - | - | - |
| 1778105506 | 23.33° C | 70% | 1009.7 hPa | 0 mm | - | - | - |
| 1778104606 | 23.33° C | 71% | 1009.9 hPa | 0 mm | - | - | - |
| 1778103706 | 22.78° C | 71% | 1009.9 hPa | 0 mm | - | - | - |
| 1778102806 | 22.78° C | 72% | 1009.6 hPa | 0 mm | - | - | - |
| 1778101906 | 22.78° C | 70% | 1009.9 hPa | 0 mm | - | - | - |
| 1778101006 | 23.33° C | 71% | 1009.9 hPa | 0 mm | - | - | - |
| 1778100106 | 22.78° C | 69% | 1009.6 hPa | 0 mm | - | - | - |
| 1778099207 | 22.22° C | 72% | 1009.4 hPa | 0 mm | - | - | - |
| 1778098306 | 22.22° C | 73% | 1009.1 hPa | 0 mm | - | - | - |
| 1778097407 | 22.22° C | 72% | 1009.5 hPa | 0 mm | - | - | - |
* Rain latest hour (hover to see other rain measurements)
** Current wind speed in m/s (hover to see current wind gust speed)